Regional Weather Roundup
Issued by NWS

Home | Current Version | Previous Version | Graphics & Text | Print | Product List | Glossary On
Versions: 1 2 3 4 5 6 7 8 9 10 11 12 13 14 15 16 17 18 19 20 21 22 23 24 25 26 27 28 29 30 31 32 33 34 35 36 37 38 39 40 41 42 43 44 45 46 47 48 49 50
083
ASUS44 KMEG 222200
RWRTN
TENNESSEE HOURLY STATE WEATHER ROUNDUP
NATIONAL WEATHER SERVICE MEMPHIS TN
500 PM CDT WED MAR 22 2017

TNZ002-004-019-021-049-052-054-088>092-222300-
WEST TENNESSEE

CITY           SKY/WX    TMP DP  RH WIND       PRES   REMARKS
MEMPHIS INTL   MOSUNNY   63  32  31 E10       30.25S
NWS MEMPHIS      N/A     63 N/A N/A MISG        N/A
JACKSON        SUNNY     62  29  28 NE12      30.26S
DYERSBURG      SUNNY     59  31  34 NE10      30.30R
PARIS          SUNNY     55  25  30 NE12      30.29F
$$

TNZ008-025-027-028-033-062-065-066-222300-
NORTH MIDDLE TENNESSEE

CITY           SKY/WX    TMP DP  RH WIND       PRES   REMARKS
NASHVILLE      PTSUNNY   58  16  19 N13       30.29F
CLARKSVILLE    SUNNY     55  17  22 NE12      30.31F
SMYRNA         MOSUNNY   58  20  22 NE8       30.29F
CROSSVILLE     SUNNY     54  17  23 NE9       30.25S
$$

TNZ061-075-076-078-094-096-097-222300-
SOUTH MIDDLE TENNESSEE

CITY           SKY/WX    TMP DP  RH WIND       PRES   REMARKS
TULLAHOMA      SUNNY     57   3  11 NE10      30.26S
WINCHESTER     SUNNY     57  23  26 N12       30.25R
MCMINNVILLE    SUNNY     55  18  22 N9        30.26S
COLUMBIA       SUNNY     57  25  28 NE12      30.25S
SHELBYVILLE    SUNNY     59  27  29 N9        30.27S
$$

TNZ017-018-042-046-047-222300-
NORTHEAST TENNESSEE

CITY           SKY/WX    TMP DP  RH WIND       PRES   REMARKS
TRI CITIES     MOSUNNY   54  15  21 N8        30.26S
$$

TNZ012-013-036-069-073-074-222300-
CENTRAL EAST TENNESSEE

CITY           SKY/WX    TMP DP  RH WIND       PRES   REMARKS
KNOXVILLE      PTSUNNY   59  17  19 NE9       30.23S
OAK RIDGE      SUNNY     60  17  18 VRB5      30.26R
GATLINBURG     SUNNY     57  19  23 VRB6      30.24R
$$

TNZ083-085-099-222300-
SOUTHEAST TENNESSEE

CITY           SKY/WX    TMP DP  RH WIND       PRES   REMARKS
CHATTANOOGA    PTSUNNY   62  20  19 NE8       30.22S
$$

SKY/WX REPORTED AS FAIR MEANS FEW OR NO CLOUDS BELOW
12 THOUSAND FEET.





USA.gov is the U.S. government's official web portal to all federal, state and local government web resources and services.